"2016-04-04 00:00:00",1516251,4.525,42.91,1.804,0.215,17.84,106.1216,14.94,15.94,17.82,0,110.7,13.11,15.75,4.9
"2016-04-04 00:00:30",1516252,4.929,45.12,1.656,0.182,17.74,106.1321,14.97,15.94,17.76,0,110.7,13.11,15.78,7.1
"2016-04-04 00:01:00",1516253,4.444,46.74,2.827,0.371,17.57,106.1428,15,15.95,17.91,0,110.7,13.12,15.80,8.7
"2016-04-04 00:01:30",1516254,4.041,45.22,1.713,0.155,17.63,106.1496,15.02,15.96,17.91,0,110.7,13.12,15.82,7.2
"2016-04-04 00:02:00",1516255,4.426,48.12,1.713,0.21,17.6,106.1507,15.02,15.97,17.98,0,110.7,13.12,15.82,10.1
"2016-04-04 00:02:30",1516256,4.43,49.59,2.174,0.125,17.57,106.1507,15.02,15.97,17.93,0,110.7,13.12,15.82,11.6
"2016-04-04 00:03:00",1516257,4.748,46,2.01,0.18,17.52,106.1524,15.02,15.99,17.9,0,110.7,13.12,15.83,8.0
"2016-04-04 00:03:30",1516258,4.257,49.44,1.819,0.211,17.42,106.1724,15.07,16.02,17.81,0,110.7,13.12,15.88,11.4
"2016-04-04 00:04:00",1516259,4.151,52.66,1.608,0.114,17.48,106.1845,15.11,16.04,17.77,0,110.7,13.12,15.91,14.7
"2016-04-04 00:04:30",1516260,4.129,53.11,2.429,0.092,17.5,106.1845,15.11,16.04,17.75,0,110.7,13.12,15.91,15.1
"2016-04-04 00:05:00",1516261,3.867,56.63,4.092,0.309,17.49,106.1921,15.12,16.07,17.72,0,110.7,13.12,15.93,18.6
"2016-04-04 00:05:30",1516262,3.85,58.14,1.982,0.341,17.41,106.2099,15.17,16.08,17.68,0,110.7,13.12,15.98,20.1
"2016-04-04 00:06:00",1516263,4.099,58.8,2.591,0.146,17.37,106.2169,15.19,16.1,17.71,0,110.7,13.12,15.99,20.8
"2016-04-04 00:06:30",1516264,3.694,54.79,4.497,0.146,17.4,106.2183,15.19,16.13,17.72,0,110.7,13.12,16.00,16.8
"2016-04-04 00:07:00",1516265,3.356,52.09,1.88,0.159,17.5,106.2189,15.19,16.14,17.56,0,110.7,13.12,16.00,14.1
"2016-04-04 00:07:30",1516266,3.668,57.48,3.143,0.29,17.32,106.2372,15.24,16.17,17.45,0,110.7,13.12,16.05,19.5
"2016-04-04 00:08:00",1516267,4.02,58.33,2.484,0.223,17.38,106.2496,15.27,16.19,17.44,0,110.7,13.12,16.08,20.3
"2016-04-04 00:08:30",1516268,3.968,54.53,2.52,0.136,17.37,106.2521,15.28,16.21,17.36,0,110.7,13.12,16.08,16.5
"2016-04-04 00:09:00",1516269,3.928,55.8,2.23,0.144,17.34,106.2521,15.28,16.22,17.29,0,110.7,13.12,16.08,17.8
"2016-04-04 00:09:30",1516270,4.009,58.27,1.459,0.118,17.36,106.2566,15.29,16.25,17.22,0,110.7,13.12,16.10,20.3
"2016-04-04 00:10:00",1516271,4.081,57.69,2.764,0.075,17.38,106.2755,15.34,16.27,17.14,0,110.7,13.12,16.14,19.7
"2016-04-04 00:10:30",1516272,3.949,57.1,1.552,0.085,17.41,106.2856,15.36,16.28,17.21,0,110.7,13.12,16.17,19.1
"2016-04-04 00:11:00",1516273,3.985,58.49,0.937,0.096,17.33,106.2859,15.37,16.31,17.12,0,110.7,13.12,16.17,20.5
"2016-04-04 00:11:30",1516274,4.069,57.14,1.573,0.089,17.26,106.2859,15.37,16.33,16.89,0,110.7,13.12,16.17,19.1
"2016-04-04 00:12:00",1516275,4.074,57.85,1.241,0.112,17.29,106.2884,15.37,16.34,16.78,0,110.7,13.12,16.18,19.8
"2016-04-04 00:12:30",1516276,4.224,58.7,1.49,0.052,17.34,106.3048,15.41,16.37,16.74,0,110.7,13.11,16.22,20.7
"2016-04-04 00:13:00",1516277,4.204,57.14,1.612,0.08,17.28,106.3149,15.44,16.37,16.7,0,110.7,13.11,16.25,19.1
"2016-04-04 00:13:30",1516278,4.457,50.16,1.576,0.086,17.38,106.3197,15.45,16.4,16.83,0,110.7,13.11,16.26,12.2
"2016-04-04 00:14:00",1516279,4.457,49.87,1.759,0.079,17.36,106.3197,15.45,16.4,16.87,0,110.7,13.11,16.26,11.9
"2016-04-04 00:14:30",1516280,4.514,48.6,0.637,0.125,17.48,106.3197,15.45,16.41,16.8,0,110.7,13.11,16.26,10.6
"2016-04-04 00:15:00",1516281,4.409,48.44,1.288,0.099,17.64,106.3197,15.45,16.43,16.84,0,110.7,13.11,16.26,10.4
"2016-04-04 00:15:30",1516282,4.356,46.65,1.285,0.176,17.73,106.3197,15.45,16.45,16.85,0,110.7,13.11,16.26,8.7
"2016-04-04 00:16:00",1516283,4.234,46.17,1.883,0.136,17.74,106.3208,15.45,16.47,16.88,0,110.7,13.11,16.26,8.2
"2016-04-04 00:16:30",1516284,3.917,43.99,2.007,0.14,17.74,106.3242,15.46,16.48,16.93,0,110.7,13.11,16.27,6.0
"2016-04-04 00:17:00",1516285,3.524,49.28,1.062,0.102,17.91,106.3279,15.47,16.49,16.88,0,110.7,13.11,16.28,11.3
"2016-04-04 00:17:30",1516286,3.769,48.16,2.462,0.094,17.66,106.3332,15.49,16.48,16.87,0,110.7,13.11,16.29,10.2
"2016-04-04 00:18:00",1516287,3.765,47.16,1.127,0.077,17.69,106.3369,15.5,16.48,16.85,0,110.7,13.11,16.30,9.2
"2016-04-04 00:18:30",1516288,3.966,46.58,1.596,0.231,17.6,106.3374,15.5,16.48,16.92,0,110.7,13.11,16.30,8.6
"2016-04-04 00:19:00",1516289,4.107,46.04,1.424,0.143,17.62,106.3374,15.5,16.49,17.12,0,110.7,13.11,16.30,8.0
"2016-04-04 00:19:30",1516290,3.868,50.21,1.977,0.395,17.5,106.3389,15.5,16.49,17.34,0,110.7,13.11,16.31,12.2
"2016-04-04 00:20:00",1516291,3.289,47.76,1.218,0.084,17.46,106.3419,15.51,16.49,17.47,0,110.7,13.12,16.31,9.8
"2016-04-04 00:20:30",1516292,3.241,45.33,1.49,0.165,17.51,106.3434,15.51,16.5,17.38,0,110.7,13.11,16.32,7.3
"2016-04-04 00:21:00",1516293,2.885,46.01,1.626,0.171,17.5,106.345,15.52,16.51,17.17,0,110.7,13.11,16.32,8.0
"2016-04-04 00:21:30",1516294,2.957,45.39,1.774,0.082,17.5,106.3473,15.52,16.52,17.13,0,110.7,13.11,16.33,7.4
"2016-04-04 00:22:00",1516295,3.213,51.26,1.99,0.128,17.4,106.3532,15.54,16.52,17.24,0,110.7,13.12,16.34,13.3
"2016-04-04 00:22:30",1516296,3.186,51.15,3.072,0.099,17.37,106.3535,15.54,16.52,17.25,0,110.7,13.12,16.34,13.2
"2016-04-04 00:23:00",1516297,3.472,52.74,2.824,0.171,17.43,106.3535,15.54,16.53,17.3,0,110.7,13.12,16.34,14.7
"2016-04-04 00:23:30",1516298,3.454,50.94,1.685,0.166,17.4,106.3535,15.54,16.52,17.08,0,110.7,13.12,16.34,12.9
"2016-04-04 00:24:00",1516299,3.826,47.7,2.832,0.253,17.32,106.356,15.54,16.56,17.13,0,110.7,13.12,16.35,9.7
"2016-04-04 00:24:30",1516300,4.397,50.69,2.546,0.12,17.26,106.3679,15.58,16.56,17.7,0,110.7,13.11,16.38,12.7
"2016-04-04 00:25:00",1516301,4.302,48.76,3.279,0.302,17.28,106.3724,15.59,16.57,18.18,0,110.7,13.12,16.39,10.8
"2016-04-04 00:25:30",1516302,4.038,53.78,1.918,0.219,17.26,106.3791,15.6,16.58,18.16,0,110.7,13.12,16.41,15.8
"2016-04-04 00:26:00",1516303,4.258,53.5,1.997,0.145,17.27,106.3836,15.62,16.6,18.18,0,110.7,13.12,16.42,15.5
"2016-04-04 00:26:30",1516304,4.236,51.1,3.078,0.116,17.27,106.387,15.62,16.6,18.18,0,110.7,13.12,16.43,13.1
"2016-04-04 00:27:00",1516305,4.178,56.21,3.818,0.203,17.2,106.3873,15.62,16.6,18.2,0,110.7,13.12,16.43,18.2
"2016-04-04 00:27:30",1516306,4.519,59.41,1.399,0.135,17.26,106.3873,15.62,16.61,18.25,0,110.7,13.12,16.43,21.4
"2016-04-04 00:28:00",1516307,4.949,60.97,2.649,0.32,17.28,106.3873,15.62,16.62,18.21,0,110.7,13.11,16.43,23.0
"2016-04-04 00:28:30",1516308,6.331,58.96,3.508,0.685,17.17,106.3873,15.62,16.62,18.21,0,110.7,13.11,16.43,21.0
"2016-04-04 00:29:00",1516309,7.228,53.22,3.84,0.335,17.13,106.3873,15.62,16.63,18.6,0,110.7,13.11,16.43,15.2
"2016-04-04 00:29:30",1516310,6.069,49.56,4.419,0.729,17.14,106.3873,15.62,16.63,18.63,0,110.7,13.12,16.43,11.6
"2016-04-04 00:30:00",1516311,4.796,38.29,5.214,0.754,17.2,106.3839,15.62,16.62,18.55,0,110.7,13.11,16.42,0.3
"2016-04-04 00:30:30",1516312,4.583,36.41,2.036,0.395,17.16,106.3712,15.58,16.63,18.24,0,110.7,13.11,16.39,358.4
"2016-04-04 00:31:00",1516313,4.564,30.33,3.434,0.334,17.17,106.3586,15.55,16.6,17.82,0,110.7,13.11,16.36,352.3
"2016-04-04 00:31:30",1516314,4.58,33.81,1.958,0.412,17.16,106.3535,15.54,16.6,17.44,0,110.7,13.11,16.34,355.8
"2016-04-04 00:32:00",1516315,4.934,29.31,1.749,0.397,17.14,106.3496,15.53,16.57,17.37,0,110.7,13.11,16.33,351.3
"2016-04-04 00:32:30",1516316,5.37,29.18,1.614,0.397,17.22,106.3321,15.48,16.55,17.12,0,110.7,13.11,16.29,351.2
"2016-04-04 00:33:00",1516317,5.772,28.42,1.536,0.622,17.25,106.3197,15.45,16.54,16.94,0,110.7,13.11,16.26,350.4
"2016-04-04 00:33:30",1516318,4.896,31.22,1.391,0.31,17.19,106.3197,15.45,16.52,17.07,0,110.7,13.11,16.26,353.2
"2016-04-04 00:34:00",1516319,5.671,31.81,3.143,0.477,17.18,106.3104,15.43,16.5,17.23,0,110.7,13.11,16.23,353.8
"2016-04-04 00:34:30",1516320,5.484,30.2,3.251,0.703,17.26,106.2882,15.37,16.48,17.11,0,110.7,13.11,16.18,352.2
"2016-04-04 00:35:00",1516321,5.686,30.88,4.273,0.56,17.24,106.2859,15.37,16.47,17.19,0,110.7,13.11,16.17,352.9
"2016-04-04 00:35:30",1516322,6.264,27.11,2.085,0.822,17.13,106.2851,15.36,16.43,17.27,0,110.7,13.11,16.17,349.1
"2016-04-04 00:36:00",1516323,6.454,26.06,1.478,0.551,17.22,106.2766,15.34,16.4,17.25,0,110.7,13.11,16.15,348.1
"2016-04-04 00:36:30",1516324,6.138,31.54,3.226,0.753,17.22,106.2631,15.31,16.4,17.09,0,110.7,13.12,16.11,353.5
"2016-04-04 00:37:00",1516325,5.843,29.73,1.554,0.378,17.11,106.2527,15.28,16.38,17.15,0,110.7,13.12,16.09,351.7
"2016-04-04 00:37:30",1516326,6.41,27.05,1.829,0.507,17.24,106.2521,15.28,16.36,16.93,0,110.7,13.12,16.08,349.0
"2016-04-04 00:38:00",1516327,5.811,28.27,1.868,0.707,17.32,106.2518,15.28,16.33,16.9,0,110.7,13.12,16.08,350.3
"2016-04-04 00:38:30",1516328,5.814,28.48,1.348,0.444,17.17,106.2459,15.26,16.32,16.96,0,110.7,13.12,16.07,350.5
"2016-04-04 00:39:00",1516329,6.086,27.66,1.781,0.578,17.26,106.2369,15.24,16.3,16.97,0,110.7,13.12,16.04,349.7
"2016-04-04 00:39:30",1516330,5.566,28.43,1.309,0.203,17.24,106.222,15.2,16.28,16.88,0,110.7,13.12,16.01,350.4
"2016-04-04 00:40:00",1516331,5.518,29.27,1.392,0.329,17.26,106.2183,15.19,16.27,16.85,0,110.7,13.12,16.00,351.3
"2016-04-04 00:40:30",1516332,5.197,29.6,2.224,0.55,17.34,106.2183,15.19,16.26,16.75,0,110.7,13.12,16.00,351.6
"2016-04-04 00:41:00",1516333,5.374,28.56,1.67,0.571,17.34,106.2183,15.19,16.25,16.74,0,110.7,13.12,16.00,350.6
"2016-04-04 00:41:30",1516334,5.847,25.97,2.153,0.421,17.34,106.2183,15.19,16.24,16.78,0,110.7,13.12,16.00,348.0
"2016-04-04 00:42:00",1516335,5.898,25.87,2.116,0.493,17.39,106.2183,15.19,16.24,16.83,0,110.7,13.12,16.00,347.9
"2016-04-04 00:42:30",1516336,5.761,25.18,1.981,0.481,17.45,106.2149,15.18,16.21,16.76,0,110.7,13.12,15.99,347.2
"2016-04-04 00:43:00",1516337,5.231,21.56,2.198,0.455,17.47,106.2135,15.18,16.2,16.91,0,110.7,13.12,15.98,343.6
"2016-04-04 00:43:30",1516338,5.532,24.67,1.31,0.27,17.51,106.2118,15.18,16.21,16.95,0,110.7,13.12,15.98,346.7
"2016-04-04 00:44:00",1516339,5.732,23.68,0.927,0.262,17.47,106.2116,15.17,16.2,17.07,0,110.7,13.12,15.98,345.7
"2016-04-04 00:44:30",1516340,4.914,21.08,2.125,0.654,17.45,106.2116,15.17,16.18,17.25,0,110.7,13.12,15.98,343.1
"2016-04-04 00:45:00",1516341,4.36,20.46,1.66,0.434,17.44,106.211,15.17,16.19,17.25,0,110.7,13.12,15.98,342.5
"2016-04-04 00:45:30",1516342,4.836,23.26,1.676,0.322,17.38,106.2113,15.17,16.19,17.27,0,110.7,13.12,15.98,345.3
"2016-04-04 00:46:00",1516343,4.487,20.59,2.417,0.408,17.28,106.2163,15.19,16.19,17.31,0,110.7,13.12,15.99,342.6
"2016-04-04 00:46:30",1516344,5.831,23.82,2.531,0.604,17.16,106.2178,15.19,16.19,17.33,0,110.7,13.12,16.00,345.8
"2016-04-04 00:47:00",1516345,5.453,23.47,2.654,0.607,17.26,106.2178,15.19,16.19,17.19,0,110.7,13.12,16.00,345.5
"2016-04-04 00:47:30",1516346,6.006,23.8,1.633,0.408,17.32,106.218,15.19,16.18,17.05,0,110.7,13.12,16.00,345.8
"2016-04-04 00:48:00",1516347,6.05,23.3,1.387,0.32,17.36,106.2183,15.19,16.19,16.94,0,110.7,13.11,16.00,345.3
"2016-04-04 00:48:30",1516348,5.916,22.92,1.186,0.497,17.38,106.2183,15.19,16.2,16.83,0,110.7,13.11,16.00,344.9
"2016-04-04 00:49:00",1516349,5.137,21.52,1.377,0.415,17.36,106.2183,15.19,16.19,16.91,0,110.7,13.11,16.00,343.5
"2016-04-04 00:49:30",1516350,5.058,20.73,2.605,0.59,17.2,106.2183,15.19,16.2,17.14,0,110.7,13.11,16.00,342.7
"2016-04-04 00:50:00",1516351,5.05,20.68,2.382,0.628,17.23,106.2183,15.19,16.2,17.41,0,110.7,13.11,16.00,342.7
"2016-04-04 00:50:30",1516352,4.519,19.49,2.157,0.471,17.23,106.2183,15.19,16.21,17.45,0,110.7,13.11,16.00,341.5
"2016-04-04 00:51:00",1516353,4.953,21.06,2.281,0.552,17.16,106.2183,15.19,16.22,17.53,0,110.7,13.11,16.00,343.1
"2016-04-04 00:51:30",1516354,4.513,20.74,1.696,0.346,17.25,106.2183,15.19,16.22,17.49,0,110.7,13.11,16.00,342.7
"2016-04-04 00:52:00",1516355,3.301,17.29,2.659,0.504,17.23,106.2183,15.19,16.23,17.54,0,110.7,13.12,16.00,339.3
"2016-04-04 00:52:30",1516356,1.885,13.73,3.231,0.462,17.15,106.2183,15.19,16.22,17.68,0,110.7,13.12,16.00,335.7
"2016-04-04 00:53:00",1516357,2.11,4.083,11.94,1.056,17.07,106.2183,15.19,16.21,18.46,0,110.7,13.12,16.00,326.1
"2016-04-04 00:53:30",1516358,2.494,355.4,13.53,1.53,17.03,106.2183,15.19,16.22,19.34,0,110.7,13.12,16.00,317.4
"2016-04-04 00:54:00",1516359,3.86,340.6,6.595,0.5,16.95,106.2183,15.19,16.21,19.7,0,110.7,13.12,16.00,302.6
"2016-04-04 00:54:30",1516360,2.31,8.63,10.78,0.729,17.12,106.2183,15.19,16.23,19.03,0,110.7,13.12,16.00,330.6
"2016-04-04 00:55:00",1516361,3.905,346.2,11.64,0.384,16.97,106.2183,15.19,16.22,19.08,0,110.7,13.12,16.00,308.2
"2016-04-04 00:55:30",1516362,4.761,352.1,2.783,0.366,17.26,106.2178,15.19,16.21,18.32,0,110.7,13.12,16.00,314.1
"2016-04-04 00:56:00",1516363,4.85,345.7,3.785,0.257,17.51,106.2104,15.17,16.21,17.7,0,110.7,13.12,15.98,307.7
"2016-04-04 00:56:30",1516364,4.315,338.1,1.469,0.131,17.66,106.1966,15.14,16.19,17.11,0,110.7,13.12,15.94,300.1
"2016-04-04 00:57:00",1516365,4.395,337.4,2.213,0.091,17.64,106.1854,15.11,16.19,16.91,0,110.7,13.12,15.91,299.4
"2016-04-04 00:57:30",1516366,3.627,337.5,1.373,0.291,17.54,106.1845,15.11,16.18,16.86,0,110.7,13.12,15.91,299.5
"2016-04-04 00:58:00",1516367,3.432,335.9,5.11,0.23,17.59,106.1854,15.11,16.17,16.63,0,110.7,13.12,15.91,297.9
"2016-04-04 00:58:30",1516368,2.5,323.8,5.114,0.252,17.55,106.1854,15.11,16.16,15.55,0,110.7,13.12,15.91,285.8
"2016-04-04 00:59:00",1516369,1.953,337.5,12.26,0.456,17.59,106.1848,15.11,16.15,15.76,0,110.7,13.12,15.91,299.5
"2016-04-04 00:59:30",1516370,1.216,344.2,24.81,0.793,17.65,106.1825,15.1,16.15,16.11,0,110.7,13.12,15.91,306.2
"2016-04-04 01:00:00",1516371,0.914,19.13,17.72,0.424,17.66,106.173,15.08,16.13,16.64,0,110.7,13.12,15.88,341.1
"2016-04-04 01:00:30",1516372,1.611,27.33,4.042,0.479,17.58,106.1628,15.05,16.13,16.66,0,110.7,13.12,15.85,349.3
"2016-04-04 01:01:00",1516373,1.997,45.25,8.31,0.503,17.53,106.151,15.02,16.11,16.37,0,110.7,13.12,15.82,7.2
"2016-04-04 01:01:30",1516374,1.377,28.85,10.12,0.44,17.56,106.151,15.02,16.1,16.24,0,110.7,13.12,15.82,350.9
"2016-04-04 01:02:00",1516375,1.015,33.04,21.38,0.333,17.54,106.1507,15.02,16.1,16.29,0,110.7,13.12,15.82,355.0
"2016-04-04 01:02:30",1516376,2.254,32.29,11.66,0.533,17.49,106.151,15.02,16.09,16.44,0,110.7,13.12,15.82,354.3
"2016-04-04 01:03:00",1516377,2.793,21.41,5.075,0.439,17.52,106.1507,15.02,16.06,16.17,0,110.7,13.12,15.82,343.4
"2016-04-04 01:03:30",1516378,2.807,32.62,4.364,0.222,17.43,106.151,15.02,16.05,16.65,0,110.7,13.12,15.82,354.6
"2016-04-04 01:04:00",1516379,1.913,16.77,12.71,0.719,17.4,106.1507,15.02,16.07,17.13,0,110.7,13.13,15.82,338.8
"2016-04-04 01:04:30",1516380,1.889,18.15,9.25,0.476,17.36,106.151,15.02,16.06,17.38,0,110.7,13.12,15.82,340.1
"2016-04-04 01:05:00",1516381,1.805,16.95,6.531,0.297,17.36,106.1507,15.02,16.05,17.22,0,110.7,13.12,15.82,339.0
"2016-04-04 01:05:30",1516382,1.18,344.4,18.6,0.34,17.41,106.1522,15.02,16.04,17.54,0,110.7,13.12,15.83,306.4
"2016-04-04 01:06:00",1516383,1.628,314.7,2.763,0.439,17.41,106.152,15.02,16.04,17.64,0,110.7,13.12,15.83,276.7
"2016-04-04 01:06:30",1516384,0.843,294.6,10.58,0.192,17.52,106.1458,15.01,16.04,17.56,0,110.7,13.12,15.81,256.6
"2016-04-04 01:07:00",1516385,0.417,306,11.58,0.151,17.59,106.1464,15.01,16.03,17.27,0,110.7,13.12,15.81,268.0
"2016-04-04 01:07:30",1516386,0.229,311.1,17.35,0.138,17.5,106.1401,14.99,16.04,17.24,0,110.7,13.12,15.80,273.1
"2016-04-04 01:08:00",1516387,0.136,324,14.54,0.103,17.55,106.1193,14.94,16.04,17.17,0,110.7,13.12,15.74,286.0
"2016-04-04 01:08:30",1516388,0.507,336.9,6.523,0.189,17.44,106.1205,14.94,16.01,17.21,0,110.7,13.12,15.75,298.9
"2016-04-04 01:09:00",1516389,0.889,322.7,24.65,0.562,17.51,106.1202,14.94,16.02,16.98,0,110.7,13.12,15.74,284.7
"2016-04-04 01:09:30",1516390,2.161,261.5,14.51,0.552,17.57,106.1211,14.94,16.01,16.58,0,110.7,13.12,15.75,223.5
"2016-04-04 01:10:00",1516391,1.487,308.7,13.54,0.392,17.52,106.1205,14.94,16,16.52,0,110.7,13.12,15.75,270.7
"2016-04-04 01:10:30",1516392,2.005,305.4,18.2,0.578,17.49,106.111,14.92,15.98,16.47,0,110.7,13.12,15.72,267.4
"2016-04-04 01:11:00",1516393,2.217,311.4,5.002,0.441,17.59,106.1035,14.9,15.96,16.37,0,110.7,13.12,15.70,273.4
"2016-04-04 01:11:30",1516394,1.708,317.6,11.31,0.523,17.6,106.105,14.9,15.95,16.39,0,110.7,13.12,15.71,279.6
"2016-04-04 01:12:00",1516395,1.88,278.1,12.5,0.355,17.63,106.0959,14.88,15.94,16.38,0,110.7,13.12,15.68,240.1
"2016-04-04 01:12:30",1516396,1.74,263.5,13.04,0.393,17.64,106.0888,14.86,15.94,16.29,0,110.7,13.13,15.66,225.5
"2016-04-04 01:13:00",1516397,1.801,277,4.193,0.29,17.66,106.0825,14.84,15.91,16.18,0,110.7,13.13,15.65,239.0
"2016-04-04 01:13:30",1516398,1.171,278.3,10.77,0.364,17.63,106.0577,14.78,15.87,16.49,0,110.7,13.13,15.58,240.3
"2016-04-04 01:14:00",1516399,0.905,279.4,14.59,0.204,17.66,106.0428,14.74,15.84,16.64,0,110.7,13.13,15.55,241.4
"2016-04-04 01:14:30",1516400,1.145,274.3,5.46,0.178,17.65,106.0256,14.7,15.8,16.77,0,110.7,13.13,15.50,236.3
"2016-04-04 01:15:00",1516401,0.796,271.7,8.37,0.184,17.79,106.0222,14.69,15.77,16.82,0,110.7,13.13,15.49,233.7
"2016-04-04 01:15:30",1516402,0.169,240.7,32.87,0.261,17.72,106.0034,14.64,15.74,16.92,0,110.7,13.13,15.44,202.7
"2016-04-04 01:16:00",1516403,0.377,316.3,18.3,0.204,17.64,105.9907,14.61,15.7,17.09,0,110.7,13.13,15.41,278.3
"2016-04-04 01:16:30",1516404,0.099,273,26.32,0.248,17.62,105.9877,14.6,15.67,17.12,0,110.7,13.13,15.40,235.0
"2016-04-04 01:17:00",1516405,-0.264,76.11,90.4,0.045,17.79,105.9719,14.56,15.67,17.18,0,110.7,13.13,15.36,38.1
"2016-04-04 01:17:30",1516406,-0.253,210.6,70.64,0.058,17.91,105.962,14.54,15.69,17.35,0,110.7,13.13,15.34,172.6
"2016-04-04 01:18:00",1516407,2.221,331.7,15.34,1.369,20.51,105.9631,14.54,15.74,17.67,0,110.7,13.09,15.34,293.7
"2016-04-04 01:18:30",1516408,0.707,353.1,86.9,1.325,19.05,105.9508,14.51,15.66,17.86,0,110.7,13.08,15.31,315.1
"2016-04-04 01:19:00",1516409,0.71,22.1,28.58,1.337,18.37,105.9371,14.47,15.65,18.05,0,110.7,13.08,15.27,344.1
"2016-04-04 01:19:30",1516410,-0.09,323.3,79.17,0.207,16.21,105.939,14.48,15.51,18.04,0,110.7,13.13,15.28,285.3
"2016-04-04 01:20:00",1516411,1.49,322.3,52.38,1.28,18.14,105.9171,14.42,15.67,18.59,0,110.7,13.08,15.22,284.3
"2016-04-04 01:20:30",1516412,2.061,314.9,11.05,1.221,17.3,105.9078,14.4,15.55,18.12,0,110.7,13.08,15.20,276.9
"2016-04-04 01:21:00",1516413,1.461,311.2,9.41,0.468,15.87,105.9051,14.39,15.41,18.06,0,110.7,13.12,15.19,273.2
"2016-04-04 01:21:30",1516414,1.162,306.6,8.21,0.377,16.02,105.8934,14.36,15.39,18.14,0,110.7,13.12,15.16,268.6
"2016-04-04 01:22:00",1516415,1.984,313,10.47,0.36,16.19,105.8818,14.33,15.35,18.26,0,110.7,13.12,15.13,275.0
"2016-04-04 01:22:30",1516416,2.278,315.3,6.216,0.273,16.45,105.8812,14.33,15.34,18.31,0,110.7,13.12,15.13,277.3
"2016-04-04 01:23:00",1516417,2.394,315,7.426,0.494,16.77,105.8801,14.33,15.32,18.44,0,110.6,13.12,15.13,277.0
"2016-04-04 01:23:30",1516418,3.157,314.3,4.693,0.248,17.18,105.8677,14.29,15.3,18.2,0,110.6,13.12,15.10,276.3
"2016-04-04 01:24:00",1516419,3.349,297,10.11,0.539,17.29,105.8514,14.25,15.3,17.56,0,110.6,13.12,15.05,259.0
"2016-04-04 01:24:30",1516420,2.997,289.2,6.413,0.504,17.42,105.848,14.24,15.28,17.24,0,110.7,13.12,15.05,251.2
"2016-04-04 01:25:00",1516421,3.009,295.2,3.542,0.175,17.38,105.8353,14.21,15.25,16.88,0,110.6,13.12,15.01,257.2
"2016-04-04 01:25:30",1516422,2.607,289,8.8,0.371,17.52,105.8156,14.16,15.25,17.07,0,110.6,13.13,14.96,251.0
"2016-04-04 01:26:00",1516423,3.408,296.2,8.06,0.336,17.52,105.8147,14.16,15.23,17.81,0,110.6,13.13,14.96,258.2
"2016-04-04 01:26:30",1516424,3.354,295.8,11.17,0.301,17.57,105.8136,14.16,15.19,17.65,0,110.6,13.14,14.96,257.8
"2016-04-04 01:27:00",1516425,4.295,320.9,10.27,0.71,17.54,105.8074,14.14,15.17,17.71,0,110.6,13.14,14.94,282.9
"2016-04-04 01:27:30",1516426,6.522,315.3,7.817,1.811,19.01,105.7928,14.1,15.25,17.05,0,110.6,13.09,14.90,277.3
"2016-04-04 01:28:00",1516427,8.58,322.3,7.345,1.487,19.46,105.7809,14.07,15.28,17.09,0,110.6,13.09,14.87,284.3
"2016-04-04 01:28:30",1516428,8.6,327.6,7.636,1.59,19.18,105.7809,14.07,15.23,17.28,0,110.6,13.09,14.87,289.6
"2016-04-04 01:29:00",1516429,7.64,322.5,7.716,1.305,18.4,105.7809,14.07,15.2,17.48,0,110.6,13.09,14.87,284.5
"2016-04-04 01:29:30",1516430,6.796,318,1.26,0.275,16.9,105.7759,14.06,15.09,17.41,0,110.6,13.14,14.86,280.0
"2016-04-04 01:30:00",1516431,6.091,320.4,1.427,0.301,17.02,105.7691,14.04,15.09,17.51,0,110.6,13.14,14.84,282.4
"2016-04-04 01:30:30",1516432,5.728,323.9,2.489,0.177,17.06,105.7559,14.01,15.08,17.62,0,110.6,13.14,14.81,285.9
"2016-04-04 01:31:00",1516433,6.024,327.9,1.858,0.202,17.25,105.7491,13.99,15.06,17.66,0,110.6,13.14,14.79,289.9
"2016-04-04 01:31:30",1516434,6.288,334.1,2.745,0.196,17.37,105.748,13.99,15.06,17.65,0,110.6,13.14,14.79,296.1
"2016-04-04 01:32:00",1516435,6.786,336.6,1.953,0.432,17.63,105.7489,13.99,15.05,17.67,0,110.6,13.14,14.79,298.6
"2016-04-04 01:32:30",1516436,5.774,337.8,2.488,0.36,17.71,105.7507,13.99,15.04,17.71,0,110.6,13.15,14.80,299.8
"2016-04-04 01:33:00",1516437,5.812,338.7,1.804,0.19,17.76,105.7537,14,15.04,17.65,0,110.6,13.15,14.80,300.7
"2016-04-04 01:33:30",1516438,5.243,337.2,3.306,0.482,17.8,105.7564,14.01,15.03,17.63,0,110.6,13.15,14.81,299.2
"2016-04-04 01:34:00",1516439,5.302,340.4,10.64,0.887,17.71,105.7567,14.01,15.02,17.54,0,110.6,13.15,14.81,302.4
"2016-04-04 01:34:30",1516440,5.73,347.1,5.828,0.998,17.72,105.7564,14.01,15.04,17.53,0,110.6,13.15,14.81,309.1
"2016-04-04 01:35:00",1516441,9,348.2,7.393,1.866,20.93,105.7611,14.02,15.27,17.6,0,110.6,13.1,14.82,310.2
"2016-04-04 01:35:30",1516442,9.97,349.5,8.15,1.554,21.04,105.7662,14.03,15.25,17.78,0,110.6,13.1,14.84,311.5
"2016-04-04 01:36:00",1516443,10.4,344.1,7.177,1.457,20.36,105.7692,14.04,15.26,17.55,0,110.6,13.1,14.84,306.1
"2016-04-04 01:36:30",1516444,9.28,341.4,6.391,1.377,18.48,105.7725,14.05,15.12,17.48,0,110.6,13.1,14.85,303.4
"2016-04-04 01:37:00",1516445,8.17,338.6,2.436,0.262,16.54,105.7775,14.06,15.02,17.53,0,110.6,13.15,14.86,300.6
"2016-04-04 01:37:30",1516446,8.61,344.9,1.613,0.229,16.69,105.7787,14.07,15.02,17.56,0,110.6,13.15,14.87,306.9
"2016-04-04 01:38:00",1516447,8.25,344.7,1.028,0.252,16.89,105.7814,14.07,15.04,17.42,0,110.6,13.14,14.87,306.7
"2016-04-04 01:38:30",1516448,8.02,343.6,1.365,0.153,17.07,105.7817,14.07,15.03,17.37,0,110.6,13.14,14.87,305.6
"2016-04-04 01:39:00",1516449,8.02,344.9,1.201,0.2,17.27,105.7798,14.07,15.03,17.38,0,110.6,13.14,14.87,306.9
"2016-04-04 01:39:30",1516450,8.22,343,1.121,0.146,17.38,105.7767,14.06,15.02,17.46,0,110.6,13.14,14.86,305.0
"2016-04-04 01:40:00",1516451,8.05,342.2,1.2,0.099,17.51,105.7747,14.06,15.02,17.42,0,110.6,13.14,14.86,304.2
"2016-04-04 01:40:30",1516452,9.03,346.7,7.402,1.43,18.91,105.7736,14.05,15.14,17.52,0,110.6,13.1,14.85,308.7
"2016-04-04 01:41:00",1516453,9.05,347.2,6.567,1.16,18.84,105.7708,14.05,15.15,17.53,0,110.6,13.09,14.85,309.2
"2016-04-04 01:41:30",1516454,9.05,343.8,6.74,1.201,18.23,105.7674,14.04,15.12,17.47,0,110.6,13.1,14.84,305.8
"2016-04-04 01:42:00",1516455,9.97,351.9,8.05,1.447,19.74,105.7637,14.03,15.22,17.59,0,110.6,13.09,14.83,313.9
"2016-04-04 01:42:30",1516456,9.26,350.2,7.907,1.577,19.55,105.7567,14.01,15.23,17.65,0,110.6,13.09,14.81,312.2
"2016-04-04 01:43:00",1516457,8.09,346,4.701,0.975,17.49,105.7502,13.99,15.02,17.4,0,110.6,13.09,14.79,308.0
"2016-04-04 01:43:30",1516458,8.69,339.3,3.54,0.325,16.62,105.7491,13.99,15.01,17.45,0,110.6,13.15,14.79,301.3
"2016-04-04 01:44:00",1516459,9.6,336.6,1.553,0.357,16.73,105.7491,13.99,15,17.62,0,110.6,13.15,14.79,298.6
"2016-04-04 01:44:30",1516460,9.51,335.8,1.7,0.196,16.92,105.7491,13.99,15.01,17.74,0,110.5,13.16,14.79,297.8
"2016-04-04 01:45:00",1516461,8.9,338.2,4.483,0.693,17.3,105.7491,13.99,15,17.81,0,110.5,13.11,14.79,300.2
"2016-04-04 01:45:30",1516462,9.61,343.3,7.809,1.395,19.14,105.7491,13.99,15.19,18.17,0,110.5,13.11,14.79,305.3
"2016-04-04 01:46:00",1516463,9.39,342.3,5.191,1.26,17.66,105.7491,13.99,15.01,18.05,0,110.5,13.11,14.79,304.3
"2016-04-04 01:46:30",1516464,9.56,339.4,0.636,0.058,16.7,105.7488,13.99,15.01,18.03,0,110.5,13.16,14.79,301.4
"2016-04-04 01:47:00",1516465,10.52,341.6,7.239,1.373,19.16,105.7429,13.97,15.16,18.11,0,110.5,13.11,14.78,303.6